Flag for Canada Weather past 2 weeks in Morden, Manitoba, Canada

Now
74 °F

Mild.


Feels Like: 74 °F
Forecast: 56 / 88 °F
Wind: 6 mph from Southeast

Location: Morden CDA CS

Current Time: Aug 29, 2015 at 2:09:15 PM

Latest Report: Aug 29, 2015 at 1:00 PM


Visibility: N/A

Pressure: 29.87 "Hg

Humidity: 80%

Dew point: 67 °F

Location of MordenLocation

Historic Weather in Morden — Graph

°F

Morden temperature yesterday

Maximum temperature yesterday: 84 °F (at 4:00 PM)
Minimum temperature yesterday: 61 °F (at 7:00 AM)
Average temperature yesterday: 71 °F

Past Weeks' High & Low Weather Summary

 TemperatureHumidityPressure
High98 °F (Aug 14, 4:00 PM)99% (Aug 28, 3:00 AM)30.22 "Hg (Aug 28, 3:00 AM)
Low44 °F (Aug 26, 5:00 AM)22% (Aug 14, 5:00 PM)29.43 "Hg (Aug 22, 10:00 AM)
Average65 °F67%29.89 "Hg
* Reported Aug 14 1:00 PM — Aug 29 1:00 PM, Morden, Weather by CustomWeather, © 2015

Note: Actual official high and low records may vary slightly from our data, if they occured in-between our weather recording intervals... More about our weather records

Advertising

Morden weather history for previous 24 hours

 ConditionsComfort  
Time TempWeatherWind HumidityBarometerVisibility
1:00 PM
Sat, Aug 29
74 °FMild.6 mph80%29.87 "HgN/A
12:00 PM69 °FMild.7 mph87%29.88 "HgN/A
11:00 AM67 °FMild.8 mph88%29.89 "HgN/A
10:00 AM66 °FMild.3 mph94%29.89 "HgN/A
9:00 AM65 °FMild.2 mph95%29.89 "HgN/A
8:00 AM63 °FMild.1 mph96%29.90 "HgN/A
7:00 AM58 °FCool.2 mph97%29.89 "HgN/A
6:00 AM57 °FCool.1 mph97%29.88 "HgN/A
5:00 AM58 °FCool.2 mph97%29.89 "HgN/A
4:00 AM60 °FCool.No wind97%29.88 "HgN/A
3:00 AM60 °FCool.2 mph96%29.88 "HgN/A
2:00 AM61 °FCool.2 mph96%29.88 "HgN/A
1:00 AM62 °FMild.2 mph96%29.88 "HgN/A
12:00 AM65 °FMild.2 mph95%29.88 "HgN/A
11:00 PM
Fri, Aug 28
67 °FMild.2 mph91%29.87 "HgN/A
10:00 PM69 °FMild.2 mph88%29.86 "HgN/A
9:00 PM73 °FMild.3 mph79%29.85 "HgN/A
8:00 PM76 °FMild.3 mph76%29.83 "HgN/A
7:00 PM79 °FWarm.2 mph65%29.82 "HgN/A
6:00 PM81 °FWarm.5 mph59%29.80 "HgN/A
5:00 PM83 °FWarm.6 mph55%29.79 "HgN/A
4:00 PM84 °FWarm.5 mph51%29.78 "HgN/A
3:00 PM84 °FWarm.7 mph50%29.78 "HgN/A
2:00 PM82 °FWarm.8 mph54%29.78 "HgN/A
Weather by CustomWeather, © 2015

See weather overviewHow to use our weather pages